Theta_e
331 332 334 335 335 336 334 333 335 333 338 339 339 339 338 338 339 339 338 338 341 340 340 342 345 351 356 357 358 358 358 356 355 354 354 355 356 355 354 355 355 355 356 355 355 355 356 357 356 357 358 358 358 357 355 354 354 355 353 351 351 350 349
328 330 330 330 332 333 332 333 333 333 335 335 336 337 339 338 338 342 344 347 348 347 348 351 353 352 356 356 358 356 356 357 357 357 355 353 354 355 356 356 355 355 356 356 357 356 357 357 357 357 357 357 357 357 356 355 354 353 352 351 350 350 350
327 327 327 328 331 331 330 331 333 333 331 333 340 336 334 337 340 340 340 339 339 341 343 343 349 351 351 349 348 347 348 350 352 352 353 354 354 355 356 357 357 357 356 357 357 357 358 357 357 357 357 357 356 356 355 354 354 353 352 352 351 350 349
325 326 328 329 330 331 332 330 332 334 336 336 336 335 335 338 340 341 342 342 342 344 343 344 346 347 348 348 347 347 348 348 348 348 349 348 347 351 354 356 356 356 356 355 355 350 355 355 356 356 359 357 356 356 355 354 354 353 353 352 351 351 351
325 326 328 328 329 329 331 333 333 332 332 333 334 335 335 337 339 341 344 346 343 342 343 344 345 346 347 347 348 349 349 348 348 349 349 350 351 352 352 354 356 356 356 358 357 357 354 353 355 356 356 356 356 355 355 354 354 353 353 353 351 351 350
325 326 327 327 328 328 329 330 330 332 332 333 335 337 339 339 340 341 342 341 342 341 341 342 343 345 345 345 346 347 349 350 351 351 350 350 350 351 352 354 355 355 355 356 357 356 356 354 355 355 355 355 355 355 355 354 354 354 353 353 352 351 350
326 327 327 327 327 327 328 329 331 333 334 334 336 342 339 339 340 341 340 339 340 339 339 340 341 341 341 343 344 346 346 347 348 348 349 350 351 352 353 354 355 356 357 358 357 356 355 354 353 353 354 354 354 352 352 354 353 354 354 352 351 351 350
327 327 327 326 327 329 329 330 333 333 334 335 337 337 336 339 340 339 338 338 338 338 338 339 340 340 341 343 345 345 346 347 348 349 350 351 351 352 352 352 353 354 356 356 355 354 354 353 353 354 354 352 349 349 351 352 353 353 352 352 351 350 351
328 327 327 329 329 330 330 331 333 333 333 335 337 336 337 337 338 339 338 339 338 338 338 339 340 342 344 344 344 344 345 347 347 349 349 349 349 349 350 351 352 354 354 355 355 355 353 353 354 355 354 351 349 349 349 352 349 347 349 351 351 350 349
328 328 330 332 332 332 331 333 334 333 333 335 335 334 335 336 337 340 340 339 337 337 338 340 342 343 342 342 343 344 345 346 347 347 347 347 347 347 348 350 351 353 353 354 355 355 355 354 354 353 351 351 350 349 350 350 349 348 347 349 351 348 348
329 330 330 331 332 332 332 332 332 331 332 332 334 334 335 336 338 338 339 338 337 338 340 340 341 341 341 342 342 342 343 344 345 345 345 346 346 346 346 347 348 351 353 353 353 353 353 354 354 352 351 350 350 351 351 351 347 346 346 349 351 349 348
329 329 329 329 330 329 328 330 333 331 332 333 335 335 336 336 337 337 336 336 338 337 338 338 340 340 340 340 340 341 342 343 344 344 344 344 344 344 344 345 347 349 350 351 351 352 352 352 352 353 351 350 350 351 351 349 347 346 346 348 351 351 349
329 328 329 329 329 328 328 329 332 332 332 334 335 336 335 335 336 336 335 335 336 337 338 339 339 338 338 339 340 341 341 342 342 343 343 344 344 344 345 346 347 347 348 350 351 351 351 352 352 353 353 352 351 351 350 349 348 347 347 348 349 349 349
337 328 328 328 327 327 328 329 331 332 333 334 335 335 335 335 335 335 334 334 335 337 338 340 339 338 338 338 339 339 340 341 341 342 343 345 346 346 346 347 346 346 348 349 349 349 350 350 351 351 352 351 351 350 350 348 347 347 348 348 349 349 348
328 326 325 326 327 327 328 329 330 332 333 333 334 333 333 334 334 334 335 336 337 337 337 338 336 336 337 338 338 338 339 340 341 342 344 345 345 346 346 346 346 346 347 347 348 349 350 351 351 349 348 348 349 350 350 348 347 348 348 348 348 349 348
323 323 324 325 325 326 327 328 329 331 332 331 331 331 331 332 332 334 335 336 336 335 336 335 335 335 336 336 337 338 339 339 340 341 342 343 343 344 345 345 346 346 345 345 346 346 348 349 350 350 350 350 350 350 349 348 347 352 353 354 350 348 348
319 320 321 322 320 319 322 326 329 330 330 330 329 330 329 330 332 333 333 333 333 333 334 334 335 335 335 336 337 338 338 338 339 340 341 342 343 344 344 344 345 344 343 343 343 344 346 347 347 346 347 347 347 348 349 349 349 351 341 342 345 352 348
320 320 320 320 320 321 324 327 328 327 327 328 329 330 330 331 331 331 331 331 331 333 334 334 334 335 336 336 336 337 337 338 339 339 340 341 342 343 344 344 342 341 341 341 341 343 344 345 345 345 345 345 346 347 348 349 353 341 340 341 339 347 351
321 321 320 319 321 325 326 325 324 325 328 328 330 330 330 329 328 328 329 330 331 332 332 334 335 335 335 335 335 336 337 338 338 339 340 341 342 343 343 341 340 339 338 338 339 340 341 342 343 343 344 345 345 347 349 349 345 338 337 338 337 338 350
318 319 320 322 323 325 324 326 327 329 329 328 327 328 328 330 329 329 330 331 332 333 334 333 333 333 333 334 335 336 337 338 338 339 339 340 341 340 340 339 338 338 338 338 338 338 339 340 341 343 343 344 345 347 349 349 348 337 335 334 335 336 340
317 320 321 319 320 322 323 324 324 324 324 325 327 328 330 330 331 332 331 332 332 332 332 332 332 332 334 334 335 336 337 337 338 338 339 340 340 339 338 337 337 337 337 337 337 336 337 338 339 341 344 345 347 348 349 351 344 336 333 331 331 334 339
320 321 320 320 320 320 322 323 323 323 324 329 333 333 330 328 328 329 331 332 332 332 332 332 332 333 334 334 335 336 336 338 338 338 338 338 338 337 337 337 337 337 337 339 338 338 339 339 340 340 342 344 345 346 347 350 339 334 333 331 330 332 343
321 322 323 323 325 324 324 326 326 326 331 331 329 326 324 328 331 331 331 330 331 331 331 332 332 333 334 336 335 336 337 338 337 337 337 338 338 337 337 337 337 338 339 338 338 338 338 338 338 339 340 342 344 344 345 347 340 332 329 328 328 332 342
322 322 322 323 325 325 326 326 328 329 328 324 327 328 330 331 330 329 329 330 331 331 332 332 332 334 335 335 336 337 338 338 338 337 338 338 337 337 338 338 338 338 340 339 339 339 339 339 339 340 342 342 343 345 345 346 345 332 327 325 326 336 342
321 322 323 324 322 323 324 326 330 331 330 330 330 329 330 331 330 330 330 332 332 332 332 332 333 334 335 335 337 338 338 338 339 338 338 337 337 337 337 337 337 339 340 340 340 340 340 341 340 340 341 342 343 347 345 345 344 332 327 325 324 331 342
321 321 321 324 327 327 329 332 330 329 328 328 329 331 331 332 332 333 333 333 332 331 332 333 334 335 336 336 337 337 337 338 339 339 338 337 337 337 337 338 338 338 339 340 339 339 340 340 340 339 339 341 342 343 344 345 345 343 327 322 321 326 342
323 322 325 328 331 338 330 330 331 330 330 330 331 332 333 333 331 332 332 333 331 331 332 334 335 335 336 336 336 336 336 337 337 337 337 338 337 338 338 339 338 338 338 338 338 338 339 339 339 339 339 340 341 341 341 343 344 345 329 321 320 323 336
321 325 329 335 338 335 330 331 330 330 331 331 332 334 333 331 331 332 331 330 330 332 334 334 335 335 336 336 336 336 336 336 337 338 338 338 338 337 337 338 338 338 337 337 338 337 337 337 338 337 338 339 341 341 340 342 346 345 332 323 317 318 326
320 324 326 327 328 335 335 328 329 330 330 332 333 333 333 331 330 331 331 330 332 334 334 335 336 336 335 336 336 336 336 336 336 337 338 337 337 337 337 338 336 335 336 336 336 335 335 335 336 336 336 337 339 341 342 343 345 341 343 324 316 316 319
322 326 326 328 330 333 335 328 329 329 330 332 332 332 331 330 330 331 331 331 333 334 335 335 335 335 335 336 335 335 335 337 338 337 337 337 337 338 337 336 335 334 334 335 335 334 334 335 335 335 335 335 337 340 342 344 345 344 341 332 317 315 316
325 326 326 326 328 331 331 328 329 329 330 331 331 331 331 331 330 331 331 332 334 334 334 334 334 334 334 334 334 334 335 335 336 336 336 337 337 336 336 335 335 334 334 334 333 333 333 334 335 335 335 336 338 340 342 343 343 344 341 333 327 316 315
326 326 327 328 328 330 331 329 329 328 329 330 331 332 333 333 333 331 332 333 334 334 333 333 332 332 333 333 333 333 334 333 334 335 336 336 336 336 336 335 334 333 332 332 333 333 334 335 335 335 336 337 338 339 340 341 341 341 341 343 343 330 317
325 326 327 327 329 332 330 328 328 328 329 329 331 331 332 332 333 333 333 333 333 333 333 332 332 332 332 331 332 332 333 332 333 335 336 335 336 335 334 335 334 332 331 330 330 330 333 335 336 335 335 335 337 339 339 340 340 340 339 338 337 336 332
324 325 327 328 329 330 328 327 326 328 329 329 330 331 331 332 332 332 332 333 333 333 332 332 332 331 330 330 331 332 333 333 339 338 334 334 334 333 333 333 332 328 327 327 327 326 328 330 332 335 336 335 336 338 338 338 339 338 336 334 334 332 329
323 324 326 326 328 329 326 327 328 328 328 328 329 330 330 330 331 332 331 332 333 332 331 331 332 331 329 330 331 331 333 334 334 333 333 333 333 333 332 330 329 325 324 325 326 325 320 321 323 330 335 336 335 336 336 338 337 337 328 332 323 329 329
324 325 325 326 327 326 326 328 327 327 327 327 328 328 328 329 329 330 331 331 332 332 330 331 330 329 329 329 330 330 331 332 332 332 333 332 333 333 333 331 321 318 318 318 321 313 305 304 316 319 320 330 336 333 336 338 339 323 315 313 311 312 315
324 325 325 326 325 324 324 325 328 327 327 327 328 327 328 328 328 328 330 330 330 330 329 327 328 328 327 328 328 329 330 332 332 332 332 332 333 333 332 332 328 304 303 309 313 307 299 297 298 301 309 323 333 324 314 318 310 308 310 309 305 303 303
325 324 325 326 324 324 325 325 326 326 326 326 327 326 327 327 328 328 329 329 328 327 326 326 326 325 324 325 326 328 330 331 333 333 332 332 333 332 332 331 330 331 306 300 306 303 300 299 297 297 299 303 312 324 317 307 302 301 300 301 302 302 302
Wind_Speed
9 7 6 6 6 7 7 5 4 5 5 5 5 5 4 3 4 3 3 3 4 4 3 3 5 5 5 5 5 5 5 5 5 6 6 7 7 8 8 8 9 10 9 9 9 10 10 9 9 10 9 10 10 10 10 9 9 9 9 8 8 8 9
9 8 7 6 6 5 4 4 4 4 4 4 4 3 1 1 1 1 1 2 2 0 1 1 0 1 3 3 2 3 3 5 6 6 6 7 7 8 9 10 10 10 10 10 10 9 9 9 9 10 10 10 11 10 10 10 10 11 10 10 9 9 9
9 8 7 5 6 6 5 4 4 5 4 2 3 3 4 4 3 4 4 4 4 3 4 6 6 5 3 2 1 2 3 3 4 5 6 7 8 9 8 8 7 6 8 9 8 9 9 9 9 9 10 10 10 11 10 11 11 11 11 10 10 9 9
7 7 6 6 6 6 6 6 6 4 2 2 4 4 4 4 4 4 4 4 4 4 5 4 4 4 3 4 4 4 5 5 4 4 4 4 4 4 6 7 7 8 8 8 9 6 9 9 9 9 10 11 11 11 11 12 11 11 12 11 10 10 10
5 5 6 6 6 6 2 1 2 4 6 5 4 3 4 4 4 5 5 4 5 4 4 4 4 4 5 4 4 4 5 5 5 4 5 5 6 5 6 7 7 7 7 8 7 8 9 10 12 10 10 11 12 11 11 12 12 12 11 11 10 10 9
8 7 6 5 3 3 4 5 5 5 5 5 4 4 3 3 3 4 3 4 4 3 3 3 4 4 5 5 4 5 5 5 5 5 5 6 7 8 8 8 8 8 8 9 8 8 9 9 9 10 10 10 11 12 11 11 12 12 12 11 11 10 10
7 7 5 4 5 4 5 5 5 4 4 4 4 3 3 4 4 3 4 4 3 4 5 6 5 4 4 4 5 6 7 7 6 8 7 6 7 8 9 8 8 8 8 7 7 6 7 8 9 10 10 10 10 10 11 11 11 11 10 10 11 10 10
8 7 5 6 5 5 5 4 4 3 3 3 4 3 4 3 4 3 3 3 4 4 4 5 6 5 6 5 5 6 7 7 7 7 7 7 7 8 9 9 9 9 8 8 7 6 7 8 8 9 11 11 10 10 10 10 9 8 8 10 10 10 9
5 6 7 6 6 6 5 5 4 4 4 4 3 2 2 1 1 1 1 3 3 4 5 5 6 6 5 6 7 7 7 7 7 7 7 8 7 8 9 9 9 8 8 8 8 6 7 8 9 9 9 10 10 10 9 7 2 3 6 9 9 7 8
6 5 4 5 4 4 4 4 4 4 4 4 4 2 1 1 2 4 4 4 4 5 6 6 6 6 5 6 7 8 7 7 7 8 8 8 8 8 8 9 8 7 8 8 7 8 7 7 9 9 9 9 9 10 10 11 7 8 9 12 9 8 11
5 5 4 5 5 4 4 4 4 3 3 3 3 3 4 4 5 5 6 6 6 6 6 6 5 5 6 6 8 8 7 8 7 8 8 9 8 9 8 8 8 7 8 8 8 9 8 7 7 9 9 9 10 10 9 8 10 13 15 13 9 11 13
4 4 5 5 5 5 6 7 5 4 5 5 5 6 6 7 7 7 7 7 6 6 6 6 5 5 6 6 7 8 9 8 7 8 9 9 9 9 9 8 7 8 7 7 9 9 8 8 7 8 9 9 10 11 10 8 10 12 12 9 7 7 10
5 6 7 8 8 8 6 3 4 7 7 7 7 7 8 8 8 7 7 7 6 6 5 6 6 6 6 7 7 7 8 8 8 8 8 9 9 9 8 8 8 7 8 7 8 9 9 9 9 8 9 10 10 11 11 11 11 11 12 13 12 12 10
6 6 6 6 6 5 6 7 7 7 8 8 8 9 8 7 7 7 7 7 6 5 5 6 6 7 7 7 7 8 9 8 8 8 8 8 8 9 9 9 8 7 7 7 8 9 10 10 10 9 8 8 9 9 9 9 11 12 12 11 11 12 13
7 8 7 6 7 7 7 8 8 8 8 9 9 9 8 6 6 4 4 4 5 5 7 7 6 7 8 7 8 8 8 8 7 7 8 8 8 9 9 9 8 7 7 6 8 9 9 10 9 9 9 9 10 10 10 10 11 10 11 12 13 13 13
8 8 8 8 9 9 8 7 6 8 10 10 9 8 5 4 4 4 5 6 6 6 7 6 7 7 7 8 8 8 8 8 8 8 8 9 9 9 9 9 8 7 7 7 8 9 9 10 10 9 9 10 10 10 10 10 10 13 19 16 12 12 11
8 8 8 8 8 7 6 7 9 10 11 9 5 4 4 4 5 5 5 5 6 7 7 4 6 7 7 8 8 8 8 8 8 8 9 9 9 9 8 8 7 7 8 9 9 10 10 10 10 10 9 10 10 11 11 11 11 18 17 18 21 13 11
8 9 9 8 8 7 7 7 7 5 4 3 3 4 5 5 5 4 5 7 7 7 6 5 6 7 8 8 8 8 9 9 9 9 10 9 9 9 8 7 7 9 10 10 10 10 9 10 11 10 10 9 10 11 12 11 16 17 17 18 19 19 13
9 8 10 8 5 2 1 1 3 4 4 4 5 6 6 5 4 6 7 7 8 5 4 6 6 7 7 8 8 9 9 9 9 10 10 9 9 8 8 8 9 10 11 11 10 9 10 11 11 11 10 10 10 12 12 12 15 16 17 17 17 19 19
6 3 1 2 4 5 4 3 4 6 7 7 6 5 5 5 7 8 7 6 4 4 5 5 7 7 8 8 8 8 8 9 9 10 9 8 8 8 9 9 10 10 10 10 9 10 10 11 12 11 11 10 11 11 11 12 14 17 18 18 18 18 17
2 3 5 4 3 3 4 6 5 4 4 5 5 4 5 7 6 4 4 4 5 5 6 6 7 7 7 8 8 8 8 9 9 8 8 9 9 9 9 10 10 11 10 9 10 10 11 11 11 11 11 11 10 11 12 11 15 17 17 17 19 20 18
4 4 4 4 3 3 3 4 5 6 6 5 4 6 4 4 3 3 5 4 4 6 6 6 6 7 6 7 8 8 8 8 8 9 9 10 9 9 10 11 11 11 10 9 9 10 10 10 10 12 12 11 11 10 12 11 13 15 17 17 17 19 14
3 2 1 3 3 4 5 6 5 6 5 3 4 3 3 3 3 4 4 4 5 5 6 6 6 7 8 8 8 8 8 8 9 9 10 9 9 10 11 11 12 11 9 10 10 11 11 11 10 10 11 11 11 11 11 11 13 16 18 17 17 14 11
3 3 3 4 4 4 3 3 2 2 1 1 1 1 1 2 3 3 4 5 5 6 7 6 7 8 8 8 8 8 8 8 8 9 10 9 10 11 11 11 10 11 9 10 11 11 11 10 10 10 11 12 12 11 11 11 12 16 16 17 17 15 11
1 1 1 2 2 2 0 0 1 2 2 2 2 3 3 3 3 3 4 5 6 6 7 7 8 8 8 8 8 7 8 8 9 9 9 10 11 10 11 11 11 11 10 10 10 11 10 10 10 10 9 10 11 15 14 11 12 15 16 17 17 15 10
4 5 6 4 5 4 3 2 4 4 3 4 4 4 4 4 4 4 5 6 5 6 7 8 8 8 8 8 7 7 8 8 9 9 10 11 11 11 11 10 10 11 11 11 11 10 9 10 10 11 11 10 10 10 11 11 11 11 15 15 16 16 10
1 4 4 4 3 2 3 2 1 2 3 4 3 3 4 3 4 5 6 6 6 7 8 8 8 8 8 7 7 8 9 8 8 10 10 10 10 11 11 10 10 11 11 13 11 11 10 10 10 10 10 9 10 10 10 10 11 11 13 14 15 17 17
5 4 3 2 2 2 1 1 3 4 4 4 4 4 4 3 4 5 6 6 7 9 8 7 8 8 7 7 8 8 8 9 9 9 9 10 10 10 11 10 9 9 11 11 10 10 10 10 9 9 10 9 9 10 11 12 16 11 11 14 15 18 20
4 4 3 3 3 2 1 3 4 4 5 5 4 4 4 4 5 6 5 6 8 8 8 8 7 7 7 7 7 8 9 9 10 10 8 9 10 11 12 11 9 11 11 11 10 10 11 10 9 9 9 9 9 9 10 10 10 15 11 13 17 18 19
4 2 1 1 2 3 2 3 3 4 4 5 4 4 4 4 6 6 6 8 8 7 7 7 6 6 7 7 8 8 9 9 10 10 10 10 10 11 12 11 11 11 10 9 10 10 10 8 8 8 10 10 9 8 9 8 8 9 13 11 16 16 18
2 1 2 3 4 4 2 3 4 5 6 6 5 5 5 4 5 6 7 8 7 7 7 7 6 6 7 7 7 8 9 9 9 10 10 10 9 11 11 11 10 10 9 8 8 9 10 9 8 8 9 9 9 8 7 7 7 7 9 12 13 15 16
1 2 2 3 4 5 4 4 4 4 5 6 5 5 5 5 5 7 8 8 7 7 6 5 6 6 7 7 7 8 9 9 10 10 10 10 9 9 9 8 9 9 9 7 8 9 10 9 7 8 8 8 7 7 7 6 6 7 6 7 12 12 15
4 4 4 4 5 4 5 4 5 5 5 6 6 6 6 6 6 7 7 8 7 6 5 5 5 6 7 8 8 8 8 9 8 9 10 9 9 8 8 8 8 9 8 7 8 9 9 9 8 8 8 8 7 7 6 5 6 6 6 5 6 6 8
4 4 5 4 5 5 4 4 4 5 6 7 7 7 7 7 7 8 7 6 5 4 4 5 5 6 7 8 8 7 8 8 13 12 9 10 10 10 9 7 6 7 7 5 6 7 8 8 8 7 6 6 6 6 6 6 5 6 6 5 6 6 6
4 4 5 6 6 5 4 4 5 6 6 7 7 7 7 7 7 7 6 4 4 4 4 6 6 7 7 8 7 8 8 8 8 8 9 9 10 9 7 7 7 6 7 5 5 5 6 7 9 9 8 6 6 5 5 5 6 7 6 8 9 9 7
4 5 5 5 4 4 4 5 5 6 7 7 7 7 7 7 7 6 4 3 4 5 6 7 7 7 7 7 7 7 8 8 8 8 8 8 9 10 9 6 9 6 4 5 6 8 6 6 6 6 6 8 5 3 6 6 6 6 11 11 11 9 12
5 5 5 5 5 6 6 6 6 6 7 7 6 6 6 7 7 6 4 3 4 5 6 6 7 7 7 7 7 8 9 8 8 8 8 8 9 8 8 9 5 10 9 6 4 5 7 6 6 8 8 6 4 1 5 3 7 9 8 6 8 11 14
4 3 3 4 5 5 6 7 7 7 8 7 6 6 6 7 6 6 5 4 5 6 7 7 7 8 8 8 8 9 9 8 9 8 8 8 8 8 8 8 8 7 5 8 7 5 9 13 14 13 11 12 7 3 3 7 7 9 10 11 12 12 15
Wind_Direction
166 169 176 173 178 179 187 190 185 191 188 191 208 214 214 222 248 243 218 178 209 250 264 201 205 220 224 225 220 226 236 245 248 251 250 248 248 253 254 248 246 244 243 242 239 237 240 232 229 228 226 224 229 229 227 225 226 229 228 226 226 225 224
168 172 172 174 173 177 170 173 172 164 184 203 221 247 194 174 342 360 30 58 43 350 211 202 226 173 190 214 209 217 224 239 243 243 249 256 256 254 250 253 249 248 242 241 244 245 243 240 234 234 231 230 231 232 232 229 228 228 228 222 223 226 222
167 170 166 165 159 162 168 180 176 180 195 194 113 93 90 99 115 106 75 55 36 14 5 352 351 355 355 341 305 251 221 221 227 243 252 256 258 258 262 266 267 275 277 280 273 260 245 246 240 241 240 238 236 232 232 232 228 226 225 222 221 221 220
169 165 164 162 156 160 179 183 183 188 165 114 108 118 108 108 112 107 96 87 71 51 28 7 6 345 337 336 327 321 319 311 297 286 275 266 265 268 267 264 260 252 255 243 235 256 278 280 267 250 243 243 240 235 230 229 229 225 224 221 221 221 221
167 151 137 149 160 183 182 113 68 65 85 88 94 97 91 84 69 66 61 63 65 43 16 356 345 340 335 338 332 323 312 300 292 287 288 288 287 282 271 270 270 260 249 247 234 220 236 241 247 247 244 242 243 239 234 228 226 223 223 219 221 220 222
158 151 153 145 119 94 110 115 105 105 102 93 89 89 90 97 97 82 89 61 34 22 15 4 342 329 322 311 303 297 292 289 280 273 270 275 284 286 282 277 273 269 260 253 248 240 236 234 241 247 251 253 252 252 247 235 227 222 221 216 219 218 219
144 139 135 129 123 123 110 108 108 103 102 101 96 85 64 63 66 60 47 37 28 9 345 335 317 304 291 295 303 305 298 290 285 279 274 272 271 277 279 279 276 273 271 268 252 238 233 232 235 240 243 246 245 239 251 256 248 231 221 216 217 218 220
135 126 133 134 137 126 107 106 101 81 63 63 71 65 63 40 49 33 26 4 356 350 322 297 293 291 293 291 283 280 279 280 276 272 273 271 268 271 278 279 279 276 279 272 258 237 244 240 239 238 236 239 243 249 249 247 258 283 266 236 224 222 221
141 136 135 136 134 125 122 126 127 125 110 105 117 126 131 115 90 45 330 290 271 254 265 259 262 267 267 272 276 275 270 270 273 272 271 272 271 270 272 276 273 272 270 268 265 244 241 248 247 245 238 235 238 238 241 248 142 235 291 295 274 265 249
134 120 121 110 96 102 120 137 151 132 139 160 167 163 152 169 192 214 223 229 241 253 255 258 251 250 257 264 266 267 270 270 267 270 273 276 275 271 271 273 277 274 270 265 264 264 246 239 247 251 245 240 239 234 230 230 198 199 215 220 186 196 221
144 134 108 102 122 150 159 149 153 166 179 182 212 209 204 209 213 216 225 227 232 239 243 246 248 250 255 259 268 272 271 269 268 268 272 274 275 275 275 276 279 278 272 273 272 269 265 252 243 247 246 242 239 237 230 213 199 213 224 228 217 211 219
148 140 160 165 177 188 193 200 190 190 201 212 208 207 210 216 218 221 226 232 227 237 247 249 252 251 258 265 270 272 272 272 270 269 270 274 276 276 276 273 271 272 272 269 272 274 270 264 254 245 245 240 239 236 231 209 211 221 230 228 225 222 230
170 180 182 192 194 207 211 200 206 210 211 212 210 209 212 214 223 226 230 241 245 242 244 252 256 261 264 266 263 266 267 269 272 271 272 273 272 272 273 269 264 265 271 270 268 271 274 267 262 253 246 241 237 236 229 220 220 220 219 218 212 210 212
190 194 206 209 220 217 214 219 218 214 218 222 221 219 219 223 221 224 226 237 248 251 249 254 255 260 262 261 263 259 262 265 269 273 271 269 268 269 270 269 266 263 266 270 270 270 269 269 261 255 246 244 240 238 235 228 228 227 226 225 221 215 214
185 199 209 216 222 222 222 222 217 215 219 224 224 221 225 231 239 248 260 253 251 249 250 252 255 261 260 261 260 260 261 265 270 270 272 271 272 272 271 268 263 262 259 262 270 269 267 264 260 254 248 245 239 237 231 227 229 231 227 226 224 219 218
193 204 211 217 223 224 224 223 215 213 215 225 223 225 232 242 250 244 234 243 244 250 255 255 259 261 266 264 261 263 267 270 273 275 275 275 272 268 266 266 267 262 263 265 267 270 266 263 260 254 247 250 244 236 234 233 233 230 228 223 223 220 220
204 210 220 221 223 228 220 217 214 214 218 226 235 238 235 231 231 228 234 242 250 250 255 253 260 261 261 264 265 269 275 278 277 276 275 273 272 270 267 267 267 270 270 271 269 269 268 261 257 253 247 246 249 243 237 236 235 231 225 228 228 224 220
214 222 224 227 232 233 228 221 220 229 246 250 234 221 217 227 229 230 241 243 246 247 250 252 254 258 263 264 272 277 278 277 278 277 274 274 274 272 268 264 264 269 271 272 271 268 267 262 255 252 248 246 245 243 239 238 238 231 225 224 226 229 229
221 225 223 230 252 277 330 210 205 206 214 216 215 213 224 215 225 236 237 239 242 247 252 249 251 258 265 270 272 275 276 277 278 277 277 274 271 269 270 266 268 270 272 271 268 271 268 266 263 256 249 245 246 244 239 238 234 230 230 228 225 224 228
236 245 25 130 173 173 186 198 201 199 198 207 219 219 230 217 217 230 232 235 249 240 249 255 264 262 266 272 275 276 279 280 279 278 276 272 270 272 272 271 268 268 268 271 272 268 268 268 267 263 255 247 245 247 245 236 235 229 228 229 229 228 227
131 138 149 151 150 186 193 198 216 237 266 263 239 235 233 246 242 252 270 249 249 252 259 263 264 268 269 273 277 280 281 281 280 279 276 274 273 274 273 273 274 272 270 268 268 267 267 267 270 266 259 252 245 249 248 245 232 225 225 224 225 228 227
118 133 152 195 189 227 223 235 228 228 236 238 229 237 244 254 252 226 247 260 261 272 271 272 276 274 276 276 277 278 278 277 275 273 276 275 275 273 274 274 272 272 272 270 267 263 262 262 260 264 263 257 251 248 251 249 236 228 229 225 221 223 226
147 145 191 217 195 215 218 213 215 225 223 228 237 257 252 233 223 234 268 289 281 280 282 281 276 274 274 276 276 277 276 270 270 275 277 278 279 278 277 277 277 274 268 267 266 267 265 262 258 259 257 256 251 245 248 250 238 229 228 225 218 216 218
173 179 196 206 229 239 238 258 277 300 257 229 212 211 233 243 248 264 280 283 286 290 286 278 272 272 273 273 274 274 275 274 274 277 278 277 277 277 277 275 274 273 269 266 269 269 268 265 261 255 251 251 251 246 249 250 243 232 226 222 218 213 214
354 32 148 178 172 188 125 60 110 101 81 63 346 297 302 296 279 277 283 284 286 283 280 275 274 275 275 277 276 277 280 280 277 274 273 275 275 276 278 278 278 278 275 269 267 268 270 268 263 260 255 254 256 257 252 251 250 237 227 220 216 214 208
12 350 358 41 61 91 107 75 43 17 1 330 303 298 311 310 297 285 283 285 284 284 279 278 276 276 277 276 272 274 279 276 277 276 276 278 280 280 278 279 281 279 277 273 271 270 268 269 264 260 258 254 253 252 250 250 250 245 228 215 214 203 194
345 42 88 89 91 85 64 45 37 301 282 283 283 295 296 300 304 291 285 283 286 282 278 278 280 281 280 276 275 277 276 276 274 276 278 278 279 281 281 279 278 280 281 280 277 271 269 267 264 256 256 254 252 252 251 249 251 249 226 212 205 197 194
25 64 63 68 77 92 111 307 313 309 306 296 280 280 285 288 287 285 284 286 281 279 279 282 284 285 282 280 278 277 277 278 278 276 278 280 281 283 282 279 279 285 288 284 279 274 271 271 269 268 267 264 252 245 246 245 243 245 225 211 198 201 200
35 73 54 22 1 319 2 338 321 305 294 292 292 290 289 288 286 286 288 284 281 284 287 286 288 287 282 280 280 283 285 284 283 285 285 285 285 285 285 286 287 285 281 279 277 273 272 270 267 261 261 260 254 246 242 239 240 232 225 205 200 204 203
72 60 325 301 289 288 318 296 282 291 299 299 294 295 293 291 288 289 291 287 286 288 288 288 285 286 288 287 288 291 290 289 289 288 288 288 290 289 286 285 284 283 280 280 279 283 278 268 262 259 260 263 256 244 238 236 233 226 221 205 201 205 204
60 11 328 318 306 294 295 310 315 312 309 307 305 301 295 288 286 287 288 286 288 287 288 288 292 299 295 293 292 292 292 292 291 290 291 292 292 292 292 294 291 287 288 289 289 287 284 273 260 254 257 257 253 244 233 228 224 222 220 209 201 203 206
341 326 319 331 331 335 322 317 314 308 304 304 304 300 297 295 285 285 280 285 286 286 290 295 300 301 297 294 293 291 293 293 294 292 291 292 289 287 292 288 284 289 295 297 297 297 290 275 261 259 259 259 253 251 246 235 224 223 220 217 213 203 207
349 339 337 320 306 307 315 317 318 316 313 309 308 307 298 291 284 274 277 282 290 300 303 297 295 296 296 294 294 293 292 293 291 295 298 299 297 291 288 294 297 295 294 299 307 302 300 289 274 262 262 268 271 265 255 233 223 223 223 204 200 193 199
338 335 321 303 298 301 309 318 313 314 314 310 306 301 295 290 289 288 290 297 302 302 301 296 292 292 290 290 289 290 291 289 297 302 300 300 298 298 300 299 292 287 281 296 292 300 298 295 292 282 268 266 259 255 241 229 228 225 223 209 194 190 173
344 328 313 322 318 331 333 323 324 316 316 308 301 298 297 295 292 295 298 296 297 300 300 293 293 294 286 283 285 288 291 289 288 290 294 295 295 286 271 280 292 272 275 259 282 323 306 290 286 286 287 258 254 259 253 235 229 231 209 206 197 179 158
333 332 330 326 330 344 338 333 322 316 310 302 299 299 299 298 297 296 292 292 305 306 303 301 298 291 287 287 286 290 293 292 289 288 288 291 292 299 301 254 227 223 210 290 326 338 319 249 254 288 303 291 251 230 238 251 243 171 175 191 192 180 159
349 352 350 342 350 343 336 326 319 313 306 303 306 306 306 305 303 301 295 305 303 304 297 297 294 292 289 291 289 290 292 290 288 286 284 286 291 296 299 310 283 197 199 216 280 344 348 339 298 292 284 293 238 292 321 244 159 166 185 146 124 123 124
10 359 344 343 341 333 333 327 321 315 308 309 313 313 310 307 304 302 290 292 302 306 301 296 294 295 296 292 291 291 290 286 285 286 289 295 295 295 303 306 311 318 196 182 162 101 37 13 358 355 354 347 325 167 73 47 72 90 93 111 120 118 117